KAL539 EDDF-EGLL

Flight info

Callsign KAL539
Flight time 1h 3m
Altitude 32000
Route OBOKA3W OBOKA Z29 TORNU DCT ABNED L980 LOGAN
Aircraft B77L/H-SDE1E2E3FGHIJ2J3J4J5M1RWXY/LB1D1

Departure

Time 2026-05-07 05:39
Airport Frankfurt Main Airport (EDDF)

Arrival

Time 2026-05-07 06:42
Airport London Heathrow Airport (EGLL)
Time Latitude Longitude Altitude Speed Heading
2026-05-07 04:27 50.02947 8.56863 355 ft 0 kts 249°
2026-05-07 05:20 50.02949 8.56871 355 ft 3 kts 249°
2026-05-07 05:20 50.02957 8.56905 359 ft 3 kts 249°
2026-05-07 05:20 50.02964 8.56938 362 ft 2 kts 250°
2026-05-07 05:21 50.02970 8.56967 365 ft 3 kts 267°
2026-05-07 05:21 50.02956 8.57018 365 ft 3 kts 333°
2026-05-07 05:21 50.02935 8.57031 365 ft 3 kts 343°
2026-05-07 05:22 50.02914 8.57041 365 ft 1 kts 340°
2026-05-07 05:22 50.02914 8.57042 365 ft 1 kts 340°
2026-05-07 05:28 50.02923 8.57036 342 ft 3 kts 340°
2026-05-07 05:28 50.02956 8.57018 366 ft 7 kts 340°
2026-05-07 05:29 50.03011 8.56986 363 ft 10 kts 340°
2026-05-07 05:29 50.03090 8.56940 364 ft 14 kts 339°
2026-05-07 05:29 50.03186 8.56883 364 ft 16 kts 340°
2026-05-07 05:29 50.03291 8.56821 363 ft 17 kts 339°
2026-05-07 05:30 50.03379 8.56849 365 ft 14 kts 57°
2026-05-07 05:30 50.03417 8.56994 359 ft 14 kts 69°
2026-05-07 05:30 50.03452 8.57140 361 ft 14 kts 69°
2026-05-07 05:30 50.03487 8.57285 360 ft 14 kts 70°
2026-05-07 05:31 50.03522 8.57432 368 ft 14 kts 69°
2026-05-07 05:31 50.03556 8.57578 363 ft 14 kts 70°
2026-05-07 05:31 50.03591 8.57724 367 ft 14 kts 69°
2026-05-07 05:31 50.03626 8.57869 365 ft 14 kts 69°
2026-05-07 05:32 50.03666 8.58011 372 ft 14 kts 52°
2026-05-07 05:32 50.03731 8.58030 368 ft 5 kts 343°
2026-05-07 05:32 50.03732 8.58030 368 ft 0 kts 344°
2026-05-07 05:34 50.03748 8.58023 372 ft 5 kts 344°
2026-05-07 05:34 50.03798 8.57996 371 ft 11 kts 340°
2026-05-07 05:34 50.03887 8.57945 370 ft 15 kts 339°
2026-05-07 05:34 50.03985 8.57888 373 ft 15 kts 340°
2026-05-07 05:35 50.04075 8.57925 374 ft 15 kts 59°
2026-05-07 05:35 50.04115 8.58080 375 ft 15 kts 69°
2026-05-07 05:35 50.04153 8.58236 374 ft 15 kts 69°
2026-05-07 05:35 50.04190 8.58393 374 ft 15 kts 69°
2026-05-07 05:36 50.04227 8.58549 375 ft 15 kts 68°
2026-05-07 05:36 50.04317 8.58621 376 ft 15 kts
2026-05-07 05:36 50.04374 8.58631 374 ft 0 kts
2026-05-07 05:37 50.04377 8.58632 374 ft 1 kts
2026-05-07 05:37 50.04395 8.58635 376 ft 4 kts
2026-05-07 05:38 50.04439 8.58642 380 ft 8 kts
2026-05-07 05:38 50.04489 8.58612 379 ft 7 kts 288°
2026-05-07 05:38 50.04475 8.58543 378 ft 5 kts 250°
2026-05-07 05:38 50.04474 8.58536 377 ft 1 kts 250°
2026-05-07 05:39 50.04436 8.58374 374 ft 42 kts 250°
2026-05-07 05:39 50.04240 8.57557 371 ft 117 kts 249°
2026-05-07 05:39 50.03883 8.56071 390 ft 171 kts 250°
2026-05-07 05:39 50.03448 8.54345 1052 ft 170 kts 250°
2026-05-07 05:40 50.03039 8.52598 1837 ft 170 kts 252°
2026-05-07 05:40 50.02614 8.50813 2277 ft 187 kts 244°
2026-05-07 05:40 50.01802 8.49193 2767 ft 195 kts 223°
2026-05-07 05:40 50.00585 8.48143 3296 ft 206 kts 200°
2026-05-07 05:41 49.99156 8.47758 3806 ft 213 kts 191°
2026-05-07 05:41 49.97711 8.47447 4048 ft 213 kts 191°
2026-05-07 05:41 49.96233 8.47118 4034 ft 215 kts 193°
2026-05-07 05:41 49.94690 8.46520 4059 ft 237 kts 199°
2026-05-07 05:42 49.93094 8.45763 4434 ft 247 kts 199°
2026-05-07 05:42 49.91560 8.44671 5139 ft 242 kts 223°
2026-05-07 05:42 49.90495 8.42580 5490 ft 257 kts 241°
2026-05-07 05:42 49.89535 8.40066 5718 ft 284 kts 241°
2026-05-07 05:43 49.88684 8.37280 6216 ft 291 kts 259°
2026-05-07 05:43 49.88616 8.34139 6881 ft 293 kts 276°
2026-05-07 05:43 49.88809 8.30945 7591 ft 300 kts 275°
2026-05-07 05:43 49.89026 8.27742 8428 ft 299 kts 282°
2026-05-07 05:44 49.89857 8.24769 9110 ft 304 kts 304°
2026-05-07 05:44 49.91145 8.22125 9803 ft 310 kts 306°
2026-05-07 05:44 49.92447 8.19430 10503 ft 317 kts 305°
2026-05-07 05:44 49.93815 8.16577 10735 ft 341 kts 306°
2026-05-07 05:45 49.95465 8.13793 11072 ft 359 kts 316°
2026-05-07 05:45 49.97379 8.11207 11727 ft 369 kts 319°
2026-05-07 05:45 49.99383 8.08651 12588 ft 375 kts 319°
2026-05-07 05:45 50.01409 8.06068 13504 ft 380 kts 319°
2026-05-07 05:46 50.03459 8.03413 14322 ft 385 kts 319°
2026-05-07 05:46 50.05518 8.00707 15161 ft 389 kts 318°
2026-05-07 05:46 50.07583 7.97961 15968 ft 393 kts 318°
2026-05-07 05:46 50.09666 7.95172 16748 ft 398 kts 318°
2026-05-07 05:47 50.11777 7.92333 17545 ft 402 kts 318°
2026-05-07 05:47 50.13914 7.89455 18281 ft 408 kts 318°
2026-05-07 05:47 50.16071 7.86544 18967 ft 412 kts 318°
2026-05-07 05:47 50.18245 7.83606 19678 ft 415 kts 318°
2026-05-07 05:48 50.20436 7.80644 20360 ft 418 kts 318°
2026-05-07 05:48 50.22645 7.77654 21005 ft 423 kts 318°
2026-05-07 05:48 50.24891 7.74632 21620 ft 428 kts 320°
2026-05-07 05:48 50.27406 7.72112 22245 ft 434 kts 334°
2026-05-07 05:49 50.30220 7.70373 22923 ft 437 kts 338°
2026-05-07 05:49 50.33061 7.68621 23593 ft 440 kts 336°
2026-05-07 05:49 50.35885 7.66732 24110 ft 444 kts 335°
2026-05-07 05:49 50.38727 7.64767 24694 ft 447 kts 335°
2026-05-07 05:50 50.41576 7.62791 25236 ft 450 kts 335°
2026-05-07 05:50 50.44413 7.60828 25750 ft 453 kts 335°
2026-05-07 05:50 50.47307 7.58831 26273 ft 456 kts 336°
2026-05-07 05:50 50.50226 7.56817 26766 ft 460 kts 336°
2026-05-07 05:51 50.53170 7.54785 27232 ft 464 kts 336°
2026-05-07 05:51 50.56122 7.52710 27722 ft 467 kts 333°
2026-05-07 05:51 50.58648 7.50492 28164 ft 469 kts 327°
2026-05-07 05:51 50.61372 7.47637 28653 ft 472 kts 325°
2026-05-07 05:52 50.64067 7.44668 29171 ft 473 kts 325°
2026-05-07 05:52 50.66780 7.41737 29881 ft 470 kts 326°
2026-05-07 05:52 50.69505 7.38900 30435 ft 469 kts 327°
2026-05-07 05:52 50.72235 7.36096 30925 ft 467 kts 326°
2026-05-07 05:53 50.74726 7.32786 31209 ft 471 kts 310°
2026-05-07 05:53 50.76476 7.28449 31622 ft 468 kts 296°
2026-05-07 05:53 50.77878 7.23817 31998 ft 469 kts 295°
2026-05-07 05:54 50.80771 7.14492 31998 ft 472 kts 296°
2026-05-07 05:54 50.83740 7.05277 31983 ft 466 kts 297°
2026-05-07 05:55 50.86687 6.96140 31999 ft 466 kts 297°
2026-05-07 05:55 50.89626 6.87013 31998 ft 466 kts 297°
2026-05-07 05:56 50.92574 6.77845 31997 ft 466 kts 297°
2026-05-07 05:56 50.95507 6.68683 31996 ft 467 kts 297°
2026-05-07 05:57 50.98440 6.59486 31998 ft 467 kts 297°
2026-05-07 05:57 51.01365 6.50279 31993 ft 467 kts 297°
2026-05-07 05:58 51.04279 6.41068 31994 ft 466 kts 297°
2026-05-07 05:58 51.07177 6.31877 31995 ft 465 kts 297°
2026-05-07 05:59 51.10066 6.22684 32018 ft 464 kts 297°
2026-05-07 05:59 51.12917 6.13552 32014 ft 464 kts 295°
2026-05-07 06:00 51.15095 6.03904 32017 ft 463 kts 284°
2026-05-07 06:00 51.16610 5.93930 32013 ft 463 kts 284°
2026-05-07 06:01 51.18220 5.83994 32016 ft 463 kts 287°
2026-05-07 06:01 51.20559 5.74432 32020 ft 463 kts 293°
2026-05-07 06:02 51.23105 5.64984 32013 ft 464 kts 293°
2026-05-07 06:02 51.25626 5.55511 32021 ft 464 kts 293°
2026-05-07 06:03 51.28121 5.46007 32030 ft 464 kts 292°
2026-05-07 06:03 51.30603 5.36475 32022 ft 464 kts 292°
2026-05-07 06:04 51.33075 5.26945 32022 ft 464 kts 292°
2026-05-07 06:04 51.35537 5.17413 32019 ft 464 kts 292°
2026-05-07 06:05 51.37990 5.07872 32021 ft 463 kts 292°
2026-05-07 06:05 51.40439 4.98320 32042 ft 463 kts 292°
2026-05-07 06:06 51.42872 4.88773 32044 ft 463 kts 292°
2026-05-07 06:06 51.45300 4.79205 32045 ft 463 kts 292°
2026-05-07 06:07 51.47717 4.69649 32044 ft 463 kts 291°
2026-05-07 06:07 51.50130 4.60078 32044 ft 462 kts 291°
2026-05-07 06:08 51.52534 4.50504 32044 ft 462 kts 291°
2026-05-07 06:08 51.54927 4.40925 32045 ft 462 kts 291°
2026-05-07 06:09 51.57309 4.31342 32047 ft 462 kts 291°
2026-05-07 06:09 51.59665 4.21821 32041 ft 461 kts 291°
2026-05-07 06:10 51.62028 4.12232 32040 ft 461 kts 291°
2026-05-07 06:10 51.64380 4.02631 32039 ft 461 kts 291°
2026-05-07 06:11 51.66727 3.93024 32036 ft 461 kts 291°
2026-05-07 06:11 51.69066 3.83410 32038 ft 461 kts 291°
2026-05-07 06:12 51.71397 3.73790 32040 ft 461 kts 291°
2026-05-07 06:12 51.73332 3.65785 32044 ft 461 kts 291°
2026-05-07 06:13 51.75646 3.56159 32045 ft 461 kts 290°
2026-05-07 06:13 51.77957 3.46496 32045 ft 461 kts 290°
2026-05-07 06:14 51.80257 3.36834 32047 ft 461 kts 290°
2026-05-07 06:14 51.82550 3.27169 32047 ft 460 kts 290°
2026-05-07 06:15 51.84258 3.17242 32050 ft 459 kts 277°
2026-05-07 06:15 51.84355 3.06935 32055 ft 459 kts 264°
2026-05-07 06:16 51.83627 2.96664 32051 ft 460 kts 263°
2026-05-07 06:16 51.82905 2.86377 32048 ft 460 kts 264°
2026-05-07 06:17 51.82226 2.76106 32052 ft 459 kts 264°
2026-05-07 06:17 51.81548 2.65914 32049 ft 459 kts 264°
2026-05-07 06:18 51.80839 2.55594 32051 ft 459 kts 264°
2026-05-07 06:18 51.80125 2.45342 32052 ft 459 kts 264°
2026-05-07 06:19 51.79409 2.35160 32048 ft 459 kts 264°
2026-05-07 06:19 51.78677 2.24858 31504 ft 465 kts 264°
2026-05-07 06:19 51.78317 2.19701 31025 ft 460 kts 264°
2026-05-07 06:20 51.78003 2.14590 30511 ft 454 kts 265°
2026-05-07 06:20 51.77715 2.09540 29994 ft 449 kts 265°
2026-05-07 06:20 51.77434 2.04550 29428 ft 444 kts 265°
2026-05-07 06:20 51.77149 1.99617 28921 ft 438 kts 265°
2026-05-07 06:21 51.76861 1.94748 28422 ft 433 kts 265°
2026-05-07 06:21 51.76574 1.89949 27935 ft 427 kts 265°
2026-05-07 06:21 51.76287 1.85201 27447 ft 423 kts 265°
2026-05-07 06:21 51.76000 1.80501 26962 ft 419 kts 265°
2026-05-07 06:22 51.75714 1.75854 26504 ft 414 kts 265°
2026-05-07 06:22 51.75146 1.66690 25571 ft 407 kts 264°
2026-05-07 06:22 51.74861 1.62161 25121 ft 404 kts 265°
2026-05-07 06:23 51.74575 1.57651 24544 ft 404 kts 264°
2026-05-07 06:23 51.74284 1.53139 23958 ft 405 kts 264°
2026-05-07 06:23 51.73991 1.48622 23320 ft 406 kts 264°
2026-05-07 06:23 51.73694 1.44088 22644 ft 406 kts 264°
2026-05-07 06:24 51.73398 1.39575 22016 ft 405 kts 264°
2026-05-07 06:24 51.73100 1.35062 21423 ft 404 kts 264°
2026-05-07 06:24 51.72802 1.30567 20817 ft 403 kts 264°
2026-05-07 06:24 51.72503 1.26072 20226 ft 402 kts 264°
2026-05-07 06:25 51.72202 1.21591 19636 ft 401 kts 264°
2026-05-07 06:25 51.71901 1.17118 19046 ft 401 kts 264°
2026-05-07 06:25 51.71598 1.12646 18461 ft 401 kts 264°
2026-05-07 06:25 51.71294 1.08190 17803 ft 400 kts 264°
2026-05-07 06:26 51.70990 1.03740 17179 ft 399 kts 264°
2026-05-07 06:26 51.70683 0.99291 16582 ft 398 kts 264°
2026-05-07 06:26 51.70377 0.94873 15984 ft 395 kts 264°
2026-05-07 06:26 51.70074 0.90552 15503 ft 381 kts 264°
2026-05-07 06:27 51.69775 0.86316 15051 ft 381 kts 264°
2026-05-07 06:27 51.69476 0.82060 14593 ft 383 kts 264°
2026-05-07 06:27 51.69177 0.77786 14133 ft 386 kts 264°
2026-05-07 06:27 51.68874 0.73478 13629 ft 388 kts 264°
2026-05-07 06:28 51.68570 0.69225 13267 ft 386 kts 264°
2026-05-07 06:28 51.68262 0.64922 12789 ft 387 kts 264°
2026-05-07 06:28 51.67954 0.60621 12393 ft 385 kts 264°
2026-05-07 06:28 51.67652 0.56379 12056 ft 377 kts 264°
2026-05-07 06:29 51.67361 0.52353 11889 ft 349 kts 264°
2026-05-07 06:29 51.67083 0.48573 11751 ft 332 kts 264°
2026-05-07 06:29 51.66823 0.44999 11607 ft 312 kts 264°
2026-05-07 06:29 51.66576 0.41610 11424 ft 299 kts 264°
2026-05-07 06:30 51.66334 0.38321 11165 ft 294 kts 264°
2026-05-07 06:30 51.66092 0.35056 10709 ft 295 kts 264°
2026-05-07 06:30 51.65849 0.31778 10273 ft 295 kts 264°
2026-05-07 06:30 51.65605 0.28495 9839 ft 295 kts 264°
2026-05-07 06:31 51.65361 0.25218 9369 ft 295 kts 263°
2026-05-07 06:31 51.65116 0.21942 8864 ft 292 kts 263°
2026-05-07 06:31 51.64875 0.18756 8383 ft 282 kts 263°
2026-05-07 06:31 51.64643 0.15681 7917 ft 272 kts 262°
2026-05-07 06:32 51.64559 0.12690 7430 ft 264 kts 270°
2026-05-07 06:32 51.64649 0.09751 7147 ft 268 kts 272°
2026-05-07 06:32 51.64762 0.06723 7103 ft 270 kts 272°
2026-05-07 06:32 51.64866 0.03730 7067 ft 264 kts 271°
2026-05-07 06:33 51.64957 0.00847 7050 ft 252 kts 271°
2026-05-07 06:33 51.65036 -0.01902 7060 ft 242 kts 271°
2026-05-07 06:34 51.65234 -0.09662 7079 ft 241 kts 271°
2026-05-07 06:34 51.65300 -0.12360 7079 ft 241 kts 271°
2026-05-07 06:34 51.65343 -0.15044 7053 ft 239 kts 264°
2026-05-07 06:34 51.64807 -0.17511 6796 ft 239 kts 228°
2026-05-07 06:35 51.63469 -0.19048 6624 ft 233 kts 202°
2026-05-07 06:35 51.61982 -0.19992 6459 ft 234 kts 201°
2026-05-07 06:35 51.60448 -0.20963 6247 ft 234 kts 201°
2026-05-07 06:35 51.58916 -0.21532 6027 ft 228 kts 175°
2026-05-07 06:36 51.57413 -0.20808 5765 ft 227 kts 149°
2026-05-07 06:36 51.56284 -0.19127 5482 ft 218 kts 129°
2026-05-07 06:36 51.55373 -0.17180 5169 ft 220 kts 127°
2026-05-07 06:36 51.54471 -0.15201 4813 ft 218 kts 127°
2026-05-07 06:37 51.53551 -0.13301 4455 ft 212 kts 138°
2026-05-07 06:37 51.52273 -0.12302 4125 ft 204 kts 174°
2026-05-07 06:37 51.50908 -0.12606 3842 ft 196 kts 201°
2026-05-07 06:37 51.49763 -0.13709 3549 ft 190 kts 216°
2026-05-07 06:38 51.48718 -0.14986 3301 ft 186 kts 217°
2026-05-07 06:38 51.47888 -0.16536 2969 ft 184 kts 250°
2026-05-07 06:38 51.47822 -0.18472 2828 ft 170 kts 275°
2026-05-07 06:38 51.47856 -0.20372 2694 ft 172 kts 268°
2026-05-07 06:39 51.47836 -0.22294 2603 ft 172 kts 269°
2026-05-07 06:39 51.47826 -0.24193 2540 ft 169 kts 269°
2026-05-07 06:39 51.47821 -0.26012 2295 ft 154 kts 269°
2026-05-07 06:39 51.47816 -0.27694 2095 ft 151 kts 269°
2026-05-07 06:40 51.47810 -0.29377 1884 ft 151 kts 269°
2026-05-07 06:40 51.47805 -0.31063 1675 ft 151 kts 269°
2026-05-07 06:40 51.47799 -0.32743 1473 ft 150 kts 269°
2026-05-07 06:40 51.47794 -0.34410 1257 ft 149 kts 269°
2026-05-07 06:41 51.47789 -0.36022 1047 ft 149 kts 269°
2026-05-07 06:41 51.47784 -0.37681 828 ft 149 kts 270°
2026-05-07 06:41 51.47778 -0.39307 521 ft 144 kts 269°
2026-05-07 06:41 51.47771 -0.40887 354 ft 140 kts 269°
2026-05-07 06:42 51.47771 -0.42460 222 ft 143 kts 269°
2026-05-07 06:42 51.47768 -0.44033 101 ft 135 kts 266°
2026-05-07 06:42 51.47760 -0.45306 94 ft 91 kts 270°
2026-05-07 06:42 51.47758 -0.46028 93 ft 38 kts 269°
2026-05-07 06:43 51.47753 -0.46444 98 ft 33 kts 264°
2026-05-07 06:43 51.47696 -0.46734 100 ft 21 kts 244°
2026-05-07 06:43 51.47652 -0.46851 96 ft 11 kts 225°
2026-05-07 06:43 51.47611 -0.46890 95 ft 1 kts 204°
2026-05-07 06:44 51.47600 -0.46898 96 ft 4 kts 204°
2026-05-07 06:44 51.47558 -0.46926 94 ft 9 kts 195°
2026-05-07 06:44 51.47496 -0.46916 92 ft 9 kts 168°
2026-05-07 06:44 51.47433 -0.46897 93 ft 9 kts 169°
2026-05-07 06:45 51.47371 -0.46878 93 ft 9 kts 170°
2026-05-07 06:45 51.47307 -0.46870 92 ft 9 kts 179°
2026-05-07 06:45 51.47244 -0.46869 92 ft 9 kts 179°
2026-05-07 06:45 51.47180 -0.46869 92 ft 9 kts 180°
2026-05-07 06:46 51.47116 -0.46870 92 ft 9 kts 180°
2026-05-07 06:46 51.47053 -0.46870 92 ft 9 kts 180°
2026-05-07 06:46 51.46989 -0.46868 92 ft 9 kts 178°
2026-05-07 06:46 51.46925 -0.46866 89 ft 9 kts 179°
2026-05-07 06:47 51.46862 -0.46865 89 ft 9 kts 179°
2026-05-07 06:47 51.46798 -0.46863 92 ft 9 kts 178°
2026-05-07 06:47 51.46734 -0.46861 92 ft 9 kts 180°
2026-05-07 06:47 51.46675 -0.46883 93 ft 9 kts 228°
2026-05-07 06:48 51.46660 -0.46981 95 ft 9 kts 265°
2026-05-07 06:48 51.46658 -0.47099 92 ft 12 kts 269°
2026-05-07 06:48 51.46657 -0.47242 90 ft 14 kts 270°
2026-05-07 06:48 51.46656 -0.47386 89 ft 12 kts 270°
2026-05-07 06:49 51.46640 -0.47471 90 ft 0 kts 220°
2026-05-07 06:49 51.46639 -0.47473 90 ft 1 kts 219°
2026-05-07 06:49 51.46633 -0.47480 90 ft 1 kts 218°
2026-05-07 06:49 51.46622 -0.47485 88 ft 2 kts 193°
2026-05-07 06:50 51.46607 -0.47489 89 ft 3 kts 188°
2026-05-07 06:50 51.46571 -0.47494 90 ft 7 kts 181°
2026-05-07 06:50 51.46503 -0.47495 89 ft 12 kts 180°
2026-05-07 06:50 51.46416 -0.47494 90 ft 13 kts 179°
2026-05-07 06:51 51.46345 -0.47429 93 ft 13 kts 116°
2026-05-07 06:51 51.46323 -0.47292 91 ft 13 kts 92°
2026-05-07 06:51 51.46322 -0.47152 90 ft 13 kts 91°
2026-05-07 06:51 51.46323 -0.47009 90 ft 13 kts 90°
2026-05-07 06:52 51.46323 -0.46870 90 ft 13 kts 90°
2026-05-07 06:52 51.46322 -0.46729 90 ft 13 kts 91°
2026-05-07 06:52 51.46322 -0.46595 90 ft 12 kts 91°
2026-05-07 06:52 51.46280 -0.46504 94 ft 10 kts 164°
2026-05-07 06:53 51.46229 -0.46500 94 ft 5 kts 180°
2026-05-07 06:53 51.46200 -0.46500 93 ft 3 kts 180°
2026-05-07 06:53 51.46196 -0.46500 93 ft 0 kts 180°